Pinedale, WY

1:13 AM MDT on October 01, 2016 (GMT -0600)
Wenz

Weather History for KPNA - June, 2013

Change the Weather History Date:

Friday, June 14, 2013

  Actual Average (KBPI) Record (KBPI)
Temperature  
Mean Temperature 48 °F 54 °F  
Max Temperature 64 °F 72 °F 81 °F (1996)
Min Temperature 32 °F 37 °F 23 °F (1976)
Degree Days  
Heating Degree Days 17 11  
Month to date heating degree days 175  
Since 1 June heating degree days 175  
Since 1 July heating degree days 10301  
Cooling Degree Days 0 0  
Month to date cooling degree days 0  
Year to date cooling degree days 0  
Since 1 June cooling degree days 0  
Moisture  
Dew Point 22 °F    
Average Humidity 40    
Maximum Humidity 87    
Minimum Humidity 14    
Precipitation  
Precipitation 0.00 in 0.03 in 0.23 in (1997)
Month to date precipitation 0.41  
Year to date precipitation 2.88  
Sea Level Pressure  
Sea Level Pressure 30.19 in    
Wind  
Wind Speed 10 mph (WNW)    
Max Wind Speed 21 mph    
Max Gust Speed 29 mph    
Visibility 10 miles    
Events      
T = Trace of Precipitation, MM = Missing Value Source: NWS Daily Summary

Daily Weather History Graph

Daily Weather History Graph

Search for Another Location

Airport or City:

Trip Planner

Search our weather history database for the weather conditions in past years. The results will help you decide how hot, cold, wet, or windy it might be!

Date:

Astronomy

Jun. 14, 2013 Rise Set
Actual Time 5:40 AM MDT 8:59 PM MDT
Civil Twilight 5:05 AM MDT 9:34 PM MDT
Nautical Twilight 4:19 AM MDT 10:19 PM MDT
Astronomical Twilight 3:23 AM MDT 11:15 PM MDT
Moon 11:25 AM MDT (6/14) 12:00 AM MDT (6/14)
Length of Visible Light 16h 29m
Length of Day
15h 18m
Waxing Crescent, 31% of the Moon is Illuminated
Jun 14
Waxing Crescent
Jun 16
First Quarter
Jun 23
Full
Jun 29
Last Quarter
Jul 8
New

Hourly Weather History & Observations

Time (MDT) Temp. Windchill Dew Point Humidity Pressure Visibility Wind Dir Wind Speed Gust Speed Precip Events Conditions
12:15 AM 46.4 °F 39.5 °F 32.0 °F 57% 30.18 in 10.0 mi NNW 17.3 mph 28.8 mph N/A   Clear
12:35 AM 48.2 °F - 30.2 °F 50% 30.16 in 10.0 mi North 13.8 mph - N/A   Clear
12:55 AM 50.0 °F - 30.2 °F 47% 30.14 in 10.0 mi North 10.4 mph - N/A   Scattered Clouds
1:15 AM 50.0 °F - 28.4 °F 43% 30.14 in 10.0 mi NW 4.6 mph - N/A   Scattered Clouds
1:35 AM 44.6 °F 43.1 °F 30.2 °F 57% 30.14 in 10.0 mi West 3.5 mph - N/A   Scattered Clouds
1:55 AM 42.8 °F 41.1 °F 30.2 °F 61% 30.13 in 10.0 mi West 3.5 mph - N/A   Scattered Clouds
2:15 AM 42.8 °F 39.3 °F 30.2 °F 61% 30.12 in 10.0 mi NW 5.8 mph - N/A   Clear
2:35 AM 41.0 °F 35.8 °F 30.2 °F 65% 30.14 in 10.0 mi West 8.1 mph - N/A   Clear
2:55 AM 44.6 °F 40.2 °F 28.4 °F 53% 30.15 in 10.0 mi WNW 8.1 mph - N/A   Scattered Clouds
3:15 AM 41.0 °F 35.8 °F 30.2 °F 65% 30.15 in 10.0 mi NW 8.1 mph - N/A   Scattered Clouds
3:35 AM 41.0 °F 36.4 °F 30.2 °F 65% 30.16 in 10.0 mi NW 6.9 mph - N/A   Scattered Clouds
3:55 AM 35.6 °F 32.8 °F 30.2 °F 81% 30.16 in 10.0 mi West 3.5 mph - N/A   Scattered Clouds
4:15 AM 37.4 °F 31.4 °F 30.2 °F 75% 30.16 in 10.0 mi NW 8.1 mph - N/A   Clear
4:35 AM 37.4 °F 33.8 °F 30.2 °F 75% 30.16 in 10.0 mi West 4.6 mph - N/A   Clear
4:55 AM 33.8 °F 28.6 °F 30.2 °F 87% 30.16 in 10.0 mi WNW 5.8 mph - N/A   Clear
5:15 AM 32.0 °F 25.6 °F 28.4 °F 87% 30.17 in 10.0 mi West 6.9 mph - N/A   Clear
5:35 AM 33.8 °F 29.6 °F 28.4 °F 81% 30.17 in 10.0 mi NNW 4.6 mph - N/A   Clear
5:55 AM 33.8 °F 27.7 °F 30.2 °F 87% 30.19 in 10.0 mi NNW 6.9 mph - N/A   Clear
6:15 AM 33.8 °F 27.7 °F 30.2 °F 87% 30.19 in 10.0 mi NNE 6.9 mph - N/A   Clear
6:35 AM 37.4 °F 34.9 °F 30.2 °F 75% 30.21 in 10.0 mi WSW 3.5 mph - N/A   Clear
6:55 AM 37.4 °F 32.1 °F 32.0 °F 81% 30.21 in 10.0 mi NW 6.9 mph - N/A   Clear
7:15 AM 41.0 °F 37.1 °F 32.0 °F 70% 30.21 in 10.0 mi WNW 5.8 mph - N/A   Clear
7:35 AM 42.8 °F 40.1 °F 32.0 °F 66% 30.21 in 10.0 mi NW 4.6 mph - N/A   Clear
7:55 AM 44.6 °F 40.2 °F 32.0 °F 61% 30.21 in 10.0 mi WNW 8.1 mph - N/A   Clear
8:15 AM 46.4 °F 44.3 °F 30.2 °F 53% 30.21 in 10.0 mi WNW 4.6 mph - N/A   Clear
8:35 AM 48.2 °F - 30.2 °F 50% 30.21 in 10.0 mi NW 4.6 mph - N/A   Clear
8:55 AM 50.0 °F - 30.2 °F 47% 30.21 in 10.0 mi Calm Calm - N/A   Clear
9:15 AM 51.8 °F - 28.4 °F 41% 30.21 in 10.0 mi NE 3.5 mph - N/A   Clear
9:35 AM 51.8 °F - 28.4 °F 41% 30.21 in 10.0 mi WSW 4.6 mph - N/A   Clear
9:55 AM 53.6 °F - 24.8 °F 33% 30.21 in 10.0 mi West 6.9 mph 16.1 mph N/A   Clear
10:15 AM 53.6 °F - 26.6 °F 35% 30.21 in 10.0 mi South 12.7 mph 18.4 mph N/A   Scattered Clouds
10:35 AM 55.4 °F - 23.0 °F 29% 30.21 in 10.0 mi SSW 8.1 mph - N/A   Mostly Cloudy
10:55 AM 55.4 °F - 23.0 °F 29% 30.19 in 10.0 mi SE 5.8 mph 17.3 mph N/A   Scattered Clouds
11:15 AM 57.2 °F - 19.4 °F 23% 30.19 in 10.0 mi SW 13.8 mph 24.2 mph N/A   Scattered Clouds
11:35 AM 59.0 °F - 14.0 °F 17% 30.19 in 10.0 mi West 16.1 mph 19.6 mph N/A   Clear
11:55 AM 59.0 °F - 12.2 °F 16% 30.19 in 10.0 mi SW 11.5 mph 19.6 mph N/A   Clear
12:15 PM 59.0 °F - 12.2 °F 16% 30.19 in 10.0 mi West 10.4 mph 16.1 mph N/A   Clear
12:35 PM 59.0 °F - 12.2 °F 16% 30.19 in 10.0 mi WSW 8.1 mph 17.3 mph N/A   Clear
12:55 PM 60.8 °F - 12.2 °F 15% 30.18 in 10.0 mi South 4.6 mph 19.6 mph N/A   Clear
1:15 PM 60.8 °F - 14.0 °F 16% 30.18 in 10.0 mi SW 8.1 mph 16.1 mph N/A   Clear
1:35 PM 62.6 °F - 14.0 °F 15% 30.18 in 10.0 mi NW 12.7 mph 18.4 mph N/A   Clear
1:55 PM 62.6 °F - 14.0 °F 15% 30.17 in 10.0 mi NNW 8.1 mph 20.7 mph N/A   Clear
2:15 PM 60.8 °F - 14.0 °F 16% 30.18 in 10.0 mi NW 15.0 mph 19.6 mph N/A   Clear
2:35 PM 64.4 °F - 15.8 °F 15% 30.17 in 10.0 mi WNW 11.5 mph 20.7 mph N/A   Clear
2:55 PM 62.6 °F - 14.0 °F 15% 30.17 in 10.0 mi WNW 18.4 mph 27.6 mph N/A   Clear
3:15 PM 62.6 °F - 14.0 °F 15% 30.17 in 10.0 mi West 16.1 mph 24.2 mph N/A   Clear
3:35 PM 62.6 °F - 14.0 °F 15% 30.17 in 10.0 mi WNW 18.4 mph 23.0 mph N/A   Clear
3:55 PM 62.6 °F - 14.0 °F 15% 30.18 in 10.0 mi WNW 13.8 mph 23.0 mph N/A   Clear
4:15 PM 62.6 °F - 12.2 °F 14% 30.18 in 10.0 mi WNW 18.4 mph 25.3 mph N/A   Clear
4:35 PM 60.8 °F - 12.2 °F 15% 30.18 in 10.0 mi NW 20.7 mph 24.2 mph N/A   Clear
4:55 PM 60.8 °F - 10.4 °F 14% 30.18 in 10.0 mi WNW 17.3 mph - N/A   Clear
5:15 PM 60.8 °F - 12.2 °F 15% 30.17 in 10.0 mi NNW 16.1 mph 24.2 mph N/A   Clear
5:35 PM 60.8 °F - 12.2 °F 15% 30.18 in 10.0 mi WNW 12.7 mph 23.0 mph N/A   Clear
5:55 PM 62.6 °F - 12.2 °F 14% 30.18 in 10.0 mi West 16.1 mph 21.9 mph N/A   Clear
6:15 PM 60.8 °F - 12.2 °F 15% 30.18 in 10.0 mi WNW 17.3 mph 21.9 mph N/A   Clear
6:35 PM 60.8 °F - 12.2 °F 15% 30.18 in 10.0 mi WNW 16.1 mph 20.7 mph N/A   Clear
6:55 PM 60.8 °F - 12.2 °F 15% 30.19 in 10.0 mi WNW 13.8 mph 21.9 mph N/A   Clear
7:15 PM 59.0 °F - 12.2 °F 16% 30.19 in 10.0 mi WNW 15.0 mph - N/A   Clear
7:35 PM 57.2 °F - 12.2 °F 17% 30.19 in 10.0 mi WNW 13.8 mph 17.3 mph N/A   Clear
7:55 PM 59.0 °F - 12.2 °F 16% 30.19 in 10.0 mi WNW 12.7 mph - N/A   Clear
8:15 PM 57.2 °F - 12.2 °F 17% 30.20 in 10.0 mi WNW 10.4 mph 16.1 mph N/A   Clear
8:35 PM 55.4 °F - 14.0 °F 20% 30.21 in 10.0 mi WNW 16.1 mph 19.6 mph N/A   Clear
8:55 PM 51.8 °F - 19.4 °F 28% 30.21 in 10.0 mi NW 13.8 mph 21.9 mph N/A   Clear
9:15 PM 50.0 °F - 21.2 °F 32% 30.22 in 10.0 mi NNW 10.4 mph - N/A   Clear
9:35 PM 46.4 °F 41.9 °F 17.6 °F 32% 30.22 in 10.0 mi NNW 9.2 mph - N/A   Clear
9:55 PM 42.8 °F 38.6 °F 21.2 °F 42% 30.23 in 10.0 mi West 6.9 mph - N/A   Clear
10:15 PM 41.0 °F 38.0 °F 21.2 °F 45% 30.24 in 10.0 mi WNW 4.6 mph - N/A   Clear
10:35 PM 41.0 °F 36.4 °F 21.2 °F 45% 30.24 in 10.0 mi West 6.9 mph - N/A   Clear
10:55 PM 41.0 °F 35.8 °F 21.2 °F 45% 30.24 in 10.0 mi WNW 8.1 mph - N/A   Scattered Clouds
11:15 PM 39.2 °F 34.2 °F 23.0 °F 52% 30.24 in 10.0 mi West 6.9 mph - N/A   Mostly Cloudy
11:35 PM 41.0 °F 35.8 °F 23.0 °F 49% 30.24 in 10.0 mi WNW 8.1 mph - N/A   Scattered Clouds
11:55 PM 37.4 °F - 24.8 °F 60% 30.24 in 10.0 mi Calm Calm - N/A   Clear